Regional Weather Roundup
Issued by NWS Upton, NY

Current Version | Previous Version | Text Only | Print | Product List | Glossary On
Versions: 1 2 3 4 5 6 7 8 9 10 11 12 13 14 15 16 17 18 19 20 21 22 23 24 25 26 27
000
ASUS41 KOKX 190508
RWROKX

REGIONAL WEATHER ROUNDUP
NATIONAL WEATHER SERVICE NEW YORK NY
100 AM EDT THU OCT 19 2017

NOTE: "FAIR" INDICATES FEW OR NO CLOUDS BELOW 12,000 FEET WITH NO
SIGNIFICANT WEATHER AND/OR OBSTRUCTIONS TO VISIBILITY.

NYZ071-072-176-178-NJZ106-104-190600-
NEW YORK CITY METRO AREA

CITY           SKY/WX    TMP DP  RH WIND       PRES   REMARKS
Central Park   CLEAR     61  47  59 W8        30.30S
Bronx Bot Gard   N/A     61  45  55 NW2       30.30R
LaGuardia APRT CLEAR     62  47  57 SW6       30.27S
Kennedy INTL   CLEAR     56  51  84 SW7       30.29S
Breezy Point     N/A     59 N/A N/A SW7         N/A
Newark/Liberty CLEAR     57  46  66 SW8       30.28S
Teterboro      PTCLDY    56  48  74 CALM      30.27S
$$

NYZ177-179-078>081-190600-
LONG ISLAND NEW YORK

CITY           SKY/WX    TMP DP  RH WIND       PRES   REMARKS
Jones Beach      N/A     61 N/A N/A W9          N/A
Matinecock PT    N/A     63 N/A N/A SW12        N/A
Farmingdale    CLEAR     55  52  89 SW5       30.28F
MacArthur/ISP  CLEAR     54  53  97 CALM      30.27F
Shirley        CLEAR     54  51  90 CALM      30.28F
Mt Sinai Harb    N/A    N/A N/A N/A SW5G10      N/A
Westhampton    FOG       41  39  93 CALM      30.29F VSB 1/4
East Hampton   FAIR      43  42  97 CALM      30.27F
Montauk          N/A     56  54  93 CALM      30.29F
$$

NYZ052-065-067-190600-
HUDSON VALLEY

CITY           SKY/WX    TMP DP  RH WIND       PRES   REMARKS
White Plains   CLEAR     56  47  71 W5        30.26F
Larchmont Harb   N/A     61 N/A N/A SW5         N/A
Croton On Huds   N/A     52 N/A N/A E1          N/A
Newburgh       CLEAR     54  46  76 W6        30.27S
Montgomery     CLEAR     46  45  96 CALM      30.25F
Poughkeepsie   CLEAR     46  44  93 CALM      30.24F
Albany         CLEAR     50  44  80 CALM      30.22F
$$

NJZ001-105-106-008-010-013-015-019>022-104-190600-
NEW JERSEY

CITY           SKY/WX    TMP DP  RH WIND       PRES   REMARKS
Newark/Liberty CLEAR     57  46  66 SW8       30.28S
Teterboro      PTCLDY    56  48  74 CALM      30.27S
Caldwell       CLEAR     49  49 100 CALM      30.28F
Somerville     CLEAR     44  43  96 CALM      30.27F
Linden         FAIR      57  46  66 CALM      30.28F
Perth Amboy      N/A     55 N/A N/A W5          N/A
Sussex         CLEAR     44  43  96 CALM      30.27F
Andover          N/A     45  44  97 CALM      30.28F
Trenton        CLEAR     50  45  83 CALM      30.29S
Millville      CLEAR     47  45  93 CALM      30.31F
Atlantic City  CLEAR     53  49  86 CALM      30.31S
Wrightstown    CLEAR     49  47  92 CALM      30.27F
Toms River       N/A     45  43  93 CALM      30.31S
Belmar         CLEAR     53  48  83 SW7       30.30F
$$

PAZ047>061-062-071-190600-
EASTERN PENNSYLVANIA

CITY           SKY/WX    TMP DP  RH WIND       PRES   REMARKS
Philadelphia   CLEAR     57  47  69 SW7       30.30F
Allentown      CLEAR     47  43  86 CALM      30.28F
Scranton       CLEAR     48  44  86 E3        30.26F
$$

CTZ002-004>006-009-010-012-RIZ004-006-007-MAZ004-011-015-190600-
SOUTHERN NEW ENGLAND
 IN CT

CITY           SKY/WX    TMP DP  RH WIND       PRES   REMARKS
Bradley INTL   CLEAR     45  44  97 CALM      30.26S
Hartford       CLEAR     50  48  93 CALM      30.26S
Danbury        CLEAR     45  43  93 CALM      30.28S
Wtrbury/Oxford CLEAR     47  45  93 CALM      30.27F
Norwalk Harbor   N/A     54 N/A N/A NW5         N/A
Bridgeport     CLEAR     54  50  86 CALM      30.26F
Meriden        PTCLDY    44  43  96 CALM      30.27S FOG
New Haven      CLEAR     48  45  89 CALM      30.27S
Chester        FAIR      55  54  94 SW3       30.27S
Groton         CLEAR     49  47  93 CALM      30.27F
Wilimantic     CLEAR     45  44  97 CALM      30.28S

 IN RI

CITY           SKY/WX    TMP DP  RH WIND       PRES   REMARKS
Providence     CLEAR     52  51  97 SW3       30.27F
Block Island   CLEAR     59  58  96 SW8       30.28F
Westerly       CLEAR     47  45  93 CALM      30.28F
 IN MA

CITY           SKY/WX    TMP DP  RH WIND       PRES   REMARKS
Boston         CLEAR     54  47  77 S8        30.25F
Worcester      CLEAR     53  45  74 W9        30.25F
Westfield      CLEAR     43  42  97 CALM      30.25F
Provincetown   CLEAR     55  54  96 S7        30.27F
Nantucket      CLEAR     55  55 100 SW3       30.29F
$$

ANZ330-335-338-340-345-350-353-355-190600-
COASTAL MARINE OBSERVATIONS


STATION/POSITION TIME  SKY/WX   TEMP    WIND        PRES    VSBY  WAVE
                                AIR SEA DIR/SP/G                  HT/PER
                 (UTC)          (F)     (DEG/KT/KT) (MB)    (MI)  (FT/S)
NY HARB ENTRANCE 0450            63 65  240/ 14/ 16 1024.8          3/10
20 S FIRE ISLAND 0350            64 64  250/ 12/ 14 1025.8          3/10
GREAT SOUTH BAY  0430            63 62  260/  8/ 10   N/A
15 E BARNEGAT LI 0430               66                N/A           3/11
HUDSON CANYON    0450            64 65  230/ 12/ 12 1025.6          4/ 9
KINGS POINT      0430            61 66  210/  5/  8 1025.7
EXECUTION ROCKS  0415            63     180/ 10/ 12   N/A
WESTERN LI SOUND 0349            64     220/ 10/ 14   N/A           1
CENTRAL LI SOUND 0353            65     240/ 14/ 16   N/A           2
EASTERN LI SOUND NOT AVBL
ROBBINS REEF     0436            61     250/  8/ 10 1025.9
$$


>>>>>>>>>>>>>>>>>>>>>>>>>>>> KEY <<<<<<<<<<<<<<<<<<<<<<<<<<<
>                                                          <
>     SKY/WX - Sky Condition/Present Weather               <
>     TMP    - Temperature in Fahrenheit                   <
>     DP     - Dew Point in Fahrenheit                     <
>     RH     - Relative Humidity in Percent                <
>     WIND   - Direction (from) and Speed in MPH           <
>     PRES   - Mean Sea Level Pressure (inches of Hg)      <
>     WCI    - Wind Chill Index                            <
>     VSB    - VISIBILITY IN MILES                         <
>     HX     - HEAT INDEX                                  <
>     TC     - TEMPERATURE IN CELSIUS                      <
>     VRB    - VARIABLE WIND DIRECTION                     <
>                                                          <
>>>>>>>>>>>>>>>>>>>>>>>>>>>> KEY <<<<<<<<<<<<<<<<<<<<<<<<<<<




USA.gov is the U.S. government's official web portal to all federal, state and local government web resources and services.